Regional Weather Roundup
Issued by NWS Cleveland, OH

Home | Current Version | Previous Version | Graphics & Text | Print | Product List | Glossary On
Versions: 1 2 3 4 5 6 7 8 9 10 11 12 13 14 15 16 17 18 19 20 21 22 23 24 25 26 27 28 29 30 31 32 33 34 35 36 37 38 39 40 41 42 43 44 45 46 47 48 49 50
000
ASUS41 KCLE 271510
RWRCLE
OHIO REGIONAL WEATHER ROUNDUP
NATIONAL WEATHER SERVICE WILMINGTON, OH
1100 AM EDT TUE SEP 27 2016

NOTE: "FAIR" INDICATES FEW OR NO CLOUDS BELOW 12,000 FEET WITH NO
SIGNIFICANT WEATHER AND/OR OBSTRUCTIONS TO VISIBILITY.

OHZ001>008-015>018-024>027-034-035-043-044-271600-
   NORTHWEST OHIO

CITY           SKY/WX    TMP DP  RH WIND       PRES   REMARKS
DEFIANCE       FAIR      63  42  46 SW13G21   29.85S
FINDLAY        FAIR      66  42  41 SW17G23   29.86F
TOLEDO EXPRESS FAIR      62  44  51 SW13G21   29.83S
TOLEDO EXEC    FAIR      64  44  48 SW15G24   29.84F
LIMA           FAIR      64  44  48 SW18G24   29.89F
$$

OHZ009>014-019>023-028>033-038-089-271600-
   NORTHEAST OHIO

CITY           SKY/WX    TMP DP  RH WIND       PRES   REMARKS
CLE-HOPKINS    FAIR      66  42  41 SW17G25   29.88F
CLE-LAKEFRONT  FAIR      67  42  40 S15       29.85F
CUY CO. ARPT   SUNNY     66  46  48 SW16      29.87S
LORAIN-ELYRIA  FAIR      64  42  44 SW17G26   29.87F
ASHTABULA      FAIR      62  47  57 SW12G21   29.88F
AKRON-CANTON   FAIR      62  45  53 SW16      29.92F
WOOSTER        FAIR      62  46  55 S14G22    29.92F
MANSFIELD      FAIR      64  44  48 S14       29.90F
YOUNGSTOWN     FAIR      61  47  59 S12       29.92F
$$

OHZ042-051>053-060>062-070>072-077>081-271600-
  SOUTHWEST OHIO

CITY           SKY/WX    TMP DP  RH WIND       PRES   REMARKS
CINC-COVINGTON FAIR      65  49  56 SW8       30.00S
CINC-LUNKEN    FAIR      64  54  69 S7        30.00F
HAMILTON       FAIR      64  48  56 W9        29.99F
DAYTON         FAIR      65  46  50 SW15      29.96F
WRIGHT-PAT AFB FAIR      64  47  55 SW14      29.95F
DAYTON GENERAL FAIR      64  45  49 SW10      29.97S
WILMINGTON     FAIR      64  49  57 SW10      29.98F
$$

OHZ036-037-039>041-045>050-054>059-063>069-073>076-082>088-271600-
  CENTRAL AND SOUTHEAST OHIO

CITY           SKY/WX    TMP DP  RH WIND       PRES   REMARKS
COLUMBUS       FAIR      62  51  67 SW9       29.95F
OSU AIRPORT    FAIR      66  48  52 SW13      29.94F
BOLTON FIELD   SUNNY     64  48  55 SW12      29.96F
RICKENBACK AFB FAIR      62  51  68 S10       29.96F
NEWARK         FAIR      65  47  52 SW10      29.96S
MARION         FAIR      65  44  46 SW14      29.91F
LANCASTER      FAIR      65  48  54 S8        29.97F
ZANESVILLE     FAIR      63  49  60 S8        29.97F
NEW PHILLY     FAIR      63  50  62 S7        29.95F
$$




USA.gov is the U.S. government's official web portal to all federal, state and local government web resources and services.